[[{"header":{"parameterUnit":"m.s-1","parameterCategory":1,"la1":30.2991,"la2":30.254,"lo1":-89.0895,"lo2":-89.0444,"dy":0.0017,"dx":0.0017,"nx":28,"ny":28,"refTime":"2025-07-10T09:00:00:Z","depth":0,"parameterNumber":2,"parameterNumberName":"U-component_of_WINDS"},"data":[0,0,0,0,0,0,0,0,0,0,0,0,0,0,0,0,0,0,0,0,0,0,0,0,0,0,0,0,0,0,0,0,0,0,0,0,0,0,0,0,0,0,0,0,0,0,0,0,0,0,0,0,0,0,0,0,0,0,3.7293,3.7294,0,3.742,3.7421,3.7423,3.7346,3.7343,3.7339,3.7335,3.7469,3.7475,3.7482,0,0,0,0,0,0,0,0,0,0,0,0,0,3.6985,3.6991,3.7292,3.7294,3.7296,3.742,3.7421,3.7423,3.7347,3.7342,3.7338,3.7334,3.7466,3.7475,3.7483,0,0,0,0,0,0,0,0,0,0,0,0,0,3.7116,3.6993,3.7292,3.7272,3.7272,3.7419,3.7421,3.7423,3.7348,3.7342,3.7337,3.7332,3.7464,3.7474,3.7484,3.7659,0,0,3.7516,3.7521,0,0,0,0,0,0,0,0,3.7109,3.7127,3.7274,3.7274,3.7274,3.7361,3.7362,3.7503,3.7349,3.7319,3.7335,3.7329,3.7438,3.745,3.7486,3.7665,3.7671,3.7517,3.7523,3.7528,3.7531,0,0,0,0,0,0,0,3.71,3.7121,3.7343,3.7276,3.7276,3.7258,3.727,3.7388,3.7408,3.7321,3.7316,3.7332,3.7437,3.7476,3.7489,3.7673,3.7517,3.7526,3.7532,3.7537,3.7999,3.8005,0,0,0,0,0,0,3.7092,3.7114,3.7339,3.7347,3.7176,3.7268,3.7282,3.7339,3.7406,3.7411,3.7337,3.7328,3.7461,3.7476,3.7493,3.77,3.7528,3.7538,3.7544,3.7993,3.8,3.8007,0,0,0,0,0,0,3.7085,3.7112,3.7334,3.7229,3.7256,3.7279,3.7344,3.7344,3.7384,3.7418,3.7421,3.7373,3.7457,3.7478,3.7617,3.7703,3.7542,3.7552,3.7986,3.7995,3.8004,3.8116,0,0,0,0,0,0,3.7077,3.7111,3.7177,3.7231,3.7262,3.7456,3.7349,3.7351,3.7401,3.7391,3.7453,3.7458,3.7454,3.7602,3.7628,3.7715,3.756,3.7978,3.799,3.8001,3.8105,3.8128,3.8148,0,0,0,0,0,3.7066,3.7205,3.7181,3.7208,3.7345,3.7461,3.7479,3.7471,3.7409,3.7476,3.7497,3.7456,3.769,3.7617,3.7645,3.7737,3.7973,3.7987,3.8,3.8095,3.8123,3.8147,0,0,0,0,0,0,3.7162,3.7212,3.7186,3.7346,3.74,3.7448,3.7532,3.7501,3.7575,3.7562,3.7551,3.7565,3.771,3.7738,3.7655,3.7908,3.7822,3.7842,3.7885,3.7912,3.7933,3.7922,3.7569,0,0,0,0,0,3.7201,3.7291,3.733,3.7468,3.7496,3.751,3.756,3.7549,3.7605,3.7627,3.7659,3.7715,3.7801,3.7858,3.7939,3.8109,3.812,3.8186,3.8207,3.8224,3.8241,3.8331,3.8359,3.8051,3.8051,3.8051,0,0,3.7285,3.7323,3.738,3.7488,3.7528,3.7621,3.7529,3.7632,3.77,3.7643,3.7775,3.7801,3.7863,3.8017,3.8087,3.8045,3.8329,3.8242,3.8255,3.8263,3.8347,3.8377,3.8402,3.806,3.8059,3.8057,0,0,3.7483,3.7521,3.7639,3.7681,3.7742,3.775,3.7779,3.7832,3.7846,3.7978,3.7936,3.8018,3.8167,3.8212,3.8254,3.8468,3.8432,3.8495,3.8606,3.8693,3.8718,3.8739,3.8813,3.884,3.8512,3.8512,3.8512,0,3.7578,3.7716,3.7704,3.7809,3.7856,3.7808,3.7926,3.7968,3.8054,3.8088,3.8039,3.8223,3.8262,3.8424,3.8476,3.8513,3.8544,3.8487,3.8715,3.8736,3.8756,3.8827,3.8855,3.8519,3.8518,3.8518,3.8517,0,3.7829,3.7925,3.8013,3.8094,3.8152,3.8264,3.8269,3.8329,3.8313,3.8326,3.8461,3.8505,3.8593,3.8631,3.8618,3.8793,3.8764,3.8716,3.8628,3.8793,3.8859,3.8886,3.8529,3.8527,3.8525,3.8523,0,0,3.8091,3.8164,3.8196,3.8231,3.8295,3.8369,3.8478,3.8563,3.8614,3.8675,3.8765,3.8891,3.8846,3.8894,3.8885,3.8962,3.9125,3.8904,3.8905,3.8942,3.9318,3.9352,3.9384,3.9102,3.9107,3.9112,3.9312,0,3.8292,3.848,3.8472,3.8649,3.8736,3.869,3.8785,3.8834,3.8849,3.8926,3.8943,3.9031,3.8966,3.8995,3.9069,3.909,3.92,3.9075,3.9185,3.919,3.9169,3.9419,3.9456,3.9643,3.9338,3.9342,3.9346,0,3.8551,3.8618,3.8803,3.8851,3.8887,3.8972,3.9048,3.9122,3.9177,3.9182,3.9235,3.9213,3.9323,3.9234,3.9384,3.9299,3.9344,3.9361,3.9368,3.9377,3.9276,3.9433,3.9703,3.973,3.9386,3.9383,3.938,0,3.8721,3.8858,3.8985,3.9017,3.9078,3.9138,3.9166,3.9215,3.9266,3.9333,3.9365,3.9445,3.9488,3.955,3.955,3.9485,3.9702,3.9613,3.9709,3.9709,3.9755,3.9752,4.0035,3.9787,3.9787,3.9786,3.9786,0,3.8944,3.9059,3.9062,3.914,3.9267,3.9256,3.9382,3.9404,3.9448,3.9529,3.9496,3.9573,3.9569,3.9647,3.9648,3.9772,3.9792,3.9799,3.9798,3.9801,3.98,3.9829,3.9815,3.9794,3.9792,3.9791,3.979,0,3.9156,3.9162,3.9298,3.9343,3.9357,3.9448,3.9487,3.9561,3.9572,3.9676,3.97,3.9718,3.9809,3.9815,3.992,3.992,4.007,4.0055,4.0051,4.0047,4.0142,4.0132,4.0452,4.0492,4.022,4.0223,4.0225,0,3.9297,3.9383,3.9437,3.9488,3.952,3.9604,3.9654,3.9647,3.9702,3.9769,3.9835,3.9922,3.9991,4.0138,4.0161,4.0241,4.0226,4.0333,4.0238,4.0238,4.0226,4.022,4.0227,4.0351,4.0354,4.0357,4.0359,0,3.9547,3.9545,3.9619,3.9694,3.9755,3.9815,3.987,3.9914,3.9913,3.9976,4.0067,4.0121,4.0227,4.0313,4.0391,4.042,4.0389,4.0388,4.0414,4.0418,4.0411,4.0413,4.0099,4.0381,4.0378,4.0377,4.0376,4.0375,3.9726,3.9799,3.9848,3.9931,3.9971,4.0023,4.0094,4.0113,4.0189,4.0273,4.0265,4.0366,4.0417,4.0517,4.0553,4.0631,4.0595,4.0633,4.0643,4.0652,4.066,4.0399,4.0646,4.0645,4.0645,4.0644,4.0644,0,3.9972,4.0,4.0077,4.0153,4.0219,4.0183,4.0241,4.0298,4.0387,4.0437,4.0504,4.0608,4.0691,4.072,4.0801,4.0858,4.0846,4.0879,4.0874,4.0881,4.0689,4.0658,4.0888,4.0888,4.0887,4.0887,4.0887,4.0887,4.0107,4.0229,4.0233,4.0374,4.0402,4.0499,4.0535,4.0583,4.0622,4.0738,4.0807,4.0824,4.0865,4.0948,4.1023,4.1029,4.106,4.1099,4.1099,4.0919,4.0895,4.0871,4.0841,4.1106,4.1106,4.1284,4.1285,4.1287]},{"header":{"parameterUnit":"m.s-1","parameterCategory":1,"la1":30.2991,"la2":30.254,"lo1":-89.0895,"lo2":-89.0444,"dy":0.0017,"dx":0.0017,"nx":28,"ny":28,"refTime":"2025-07-10T09:00:00:Z","depth":0,"parameterNumber":3,"parameterNumberName":"V-component_of_WINDS"},"data":[0,0,0,0,0,0,0,0,0,0,0,0,0,0,0,0,0,0,0,0,0,0,0,0,0,0,0,0,0,0,0,0,0,0,0,0,0,0,0,0,0,0,0,0,0,0,0,0,0,0,0,0,0,0,0,0,0,0,0.0101,0.0101,0,0.0069,0.0069,0.0068,0.0021,0.002,0.0019,0.0018,-0.0013,-0.0013,-0.0013,0,0,0,0,0,0,0,0,0,0,0,0,0,0.0122,0.0122,0.0101,0.0101,0.01,0.0069,0.0069,0.0068,0.0021,0.002,0.0019,0.0018,-0.0013,-0.0013,-0.0013,0,0,0,0,0,0,0,0,0,0,0,0,0,0.0104,0.0122,0.0101,0.0073,0.007,0.0069,0.0069,0.0068,0.0021,0.002,0.0018,0.0017,-0.0013,-0.0013,-0.0013,0.0011,0,0,-0.0014,-0.0014,0,0,0,0,0,0,0,0,0.0105,0.0103,0.0078,0.0075,0.0072,0.0047,0.0064,0.0049,0.0021,0.004,0.0018,0.0017,0.0008,0.0006,0.0003,0.001,0.0009,-0.0014,-0.0014,-0.0014,-0.0014,0,0,0,0,0,0,0,0.0106,0.0104,0.0089,0.0077,0.0074,0.0062,0.0058,0.0061,0.0031,0.0038,0.0034,0.0031,0.0006,0.0003,0.0002,0.0008,-0.0014,-0.0014,-0.0014,-0.0014,0.0032,0.0034,0,0,0,0,0,0,0.0112,0.0106,0.009,0.0088,0.0086,0.0063,0.0058,0.0057,0.0031,0.0026,0.0032,0.0029,0.0004,0.0002,0.0001,0.0027,-0.0014,-0.0014,-0.0014,0.0031,0.0033,0.0034,0,0,0,0,0,0,0.0112,0.0111,0.0091,0.0096,0.0092,0.0064,0.0062,0.0057,0.0053,0.0027,0.0021,0.0035,0.0003,0.0001,0.0009,0.0026,-0.0014,-0.0014,0.003,0.0032,0.0033,0.0082,0,0,0,0,0,0,0.0113,0.0111,0.012,0.0096,0.0092,0.01,0.0063,0.0057,0.0053,0.0049,0.0028,0.0023,0.0002,0.0009,0.0009,0.0025,-0.0014,0.0028,0.0031,0.0033,0.0078,0.0085,0.0091,0,0,0,0,0,0.0114,0.0136,0.0121,0.012,0.0103,0.0101,0.0098,0.0073,0.0055,0.0064,0.0046,0.0024,0.0024,0.001,0.0009,0.0026,0.0027,0.003,0.0033,0.0076,0.0084,0.009,0,0,0,0,0,0,0.0164,0.0132,0.0116,0.013,0.0118,0.0093,0.0103,0.0082,0.0076,0.0072,0.0041,0.0037,0.0049,0.0038,0.0024,0.0048,0.0022,0.0025,0.0055,0.0062,0.0068,0.0071,-0.0014,0,0,0,0,0,0.0177,0.0177,0.0149,0.0165,0.016,0.0133,0.0131,0.0112,0.0099,0.0094,0.0077,0.0065,0.0062,0.0062,0.0058,0.0076,0.0071,0.0087,0.0093,0.0098,0.0101,0.0109,0.0116,0.0043,0.0043,0.0043,0,0,0.0203,0.0186,0.0188,0.0174,0.0163,0.0164,0.0129,0.0132,0.0133,0.0094,0.0101,0.0088,0.0073,0.0086,0.0091,0.0077,0.012,0.0102,0.0106,0.0106,0.0113,0.012,0.0126,0.0045,0.0045,0.0045,0,0,0.0252,0.0239,0.025,0.0238,0.0221,0.0203,0.0205,0.0182,0.0172,0.0178,0.0149,0.0149,0.0145,0.0135,0.013,0.0172,0.0151,0.0172,0.0204,0.0212,0.0218,0.0223,0.0238,0.0244,0.0175,0.0175,0.0175,0,0.0287,0.0287,0.0258,0.0263,0.0257,0.0221,0.0232,0.0223,0.0206,0.0203,0.0188,0.0181,0.0168,0.0178,0.0188,0.0185,0.0187,0.0175,0.0219,0.0224,0.0228,0.0242,0.0248,0.0178,0.0177,0.0177,0.0177,0,0.0331,0.0332,0.0343,0.0326,0.0322,0.033,0.0302,0.0301,0.0282,0.0265,0.0271,0.0254,0.0245,0.0246,0.0228,0.0253,0.0245,0.0225,0.0198,0.0238,0.0251,0.0256,0.0181,0.018,0.018,0.0179,0,0,0.0412,0.0378,0.0382,0.0374,0.0351,0.0351,0.0357,0.0348,0.0348,0.0336,0.034,0.0337,0.0317,0.0311,0.0292,0.0299,0.0333,0.0277,0.0277,0.0289,0.036,0.0375,0.0382,0.0318,0.0319,0.032,0.0361,0,0.0457,0.0465,0.0438,0.0452,0.0452,0.0417,0.0422,0.0409,0.0393,0.039,0.0372,0.037,0.0345,0.0341,0.0346,0.0328,0.0347,0.0325,0.0322,0.0323,0.0328,0.0389,0.0406,0.0445,0.0366,0.0366,0.0367,0,0.0511,0.0501,0.0515,0.0491,0.049,0.0495,0.0483,0.0481,0.0465,0.0453,0.0445,0.0421,0.0425,0.0399,0.0403,0.0388,0.0385,0.0376,0.0377,0.0376,0.0348,0.039,0.0457,0.0463,0.0375,0.0374,0.0373,0,0.0568,0.0559,0.0566,0.056,0.0531,0.0535,0.0524,0.0506,0.0502,0.0492,0.0489,0.048,0.0475,0.0469,0.0443,0.0426,0.045,0.0422,0.044,0.0441,0.0448,0.0448,0.0516,0.0445,0.0445,0.0445,0.0445,0,0.0622,0.0632,0.0592,0.0596,0.0606,0.0575,0.0586,0.0571,0.0555,0.0556,0.0525,0.0526,0.0492,0.049,0.047,0.0476,0.0474,0.0465,0.0459,0.0468,0.0469,0.0466,0.0463,0.0447,0.0446,0.0446,0.0446,0,0.0689,0.0662,0.0667,0.0639,0.0632,0.0641,0.0617,0.062,0.0601,0.0602,0.0601,0.0571,0.0567,0.054,0.053,0.0516,0.053,0.0519,0.0536,0.0532,0.0552,0.0551,0.0621,0.0628,0.0553,0.0554,0.0554,0,0.0725,0.0731,0.0704,0.0701,0.0691,0.0688,0.0683,0.0652,0.0648,0.0629,0.0634,0.0627,0.062,0.0614,0.0592,0.0583,0.0572,0.0597,0.0571,0.0579,0.0573,0.0573,0.0573,0.0603,0.0604,0.0605,0.0606,0,0.0791,0.0777,0.0771,0.076,0.0755,0.0745,0.0733,0.0733,0.0699,0.0696,0.069,0.0684,0.0673,0.0666,0.0653,0.0641,0.0618,0.0614,0.0618,0.0627,0.0636,0.0631,0.0552,0.0613,0.0612,0.0611,0.0611,0.0611,0.0844,0.0848,0.0829,0.0823,0.081,0.0799,0.08,0.0781,0.0775,0.0763,0.0745,0.0742,0.0724,0.0704,0.0694,0.0691,0.0678,0.0683,0.0685,0.0687,0.0691,0.0636,0.0689,0.0688,0.0688,0.0688,0.0688,0,0.0909,0.0895,0.0889,0.0873,0.0868,0.0845,0.083,0.0828,0.0825,0.081,0.0803,0.0796,0.0789,0.0765,0.0755,0.0757,0.0746,0.0756,0.0756,0.0753,0.0704,0.0701,0.0765,0.0765,0.0765,0.0765,0.0765,0.0765,0.0943,0.0948,0.0932,0.093,0.0916,0.0912,0.0905,0.0895,0.0883,0.0876,0.087,0.0854,0.0835,0.0823,0.0815,0.0808,0.0807,0.082,0.081,0.0764,0.0757,0.075,0.0747,0.082,0.082,0.0859,0.086,0.086]}]]